Weather in Shcherbakovka

Russia / Chelyabinsk Oblast     56°11′21″N   60°54′47″E
temp.,
°C
wind,
m/s
gust,
m/s
humid.,
%
clouds,
%
prec.,
mm/h
press.,
hPa
HPBL,
m
19 april, mon
mon1923:00−2ene49430 0.0 1031778
02:00−3ene37450 0.0 1033808
05:00−4ene25500 0.0 1034388
08:00−3ene46380 0.0 10351024
11:000ene35325 0.0 10351646
14:00+2ene342921 0.0 10341952
17:00+3ne242948 0.0 10332026
20:00−1s11435 0.0 103410
20 april, tue
tue2023:00−2wnw11525 0.0 103411
02:00−3nw11550 0.0 103416
05:00−3wnw22566 0.0 103525
08:00+1wnw34405 0.0 1034323
11:00+5wnw35326 0.0 10331496
14:00+8nw46275 0.0 10311731
17:00+8nw56300 0.0 10301724
20:00+4wnw36520 0.0 1030114
21 april, wed
wed2123:00+1wnw39670 0.0 1031170
02:000wnw38740 0.0 1031146
05:00−1wnw24750 0.0 103184
08:00+3nw35590 0.0 1032274
11:00+9nnw22440 0.0 1032979
14:00+12ene11360 0.0 10311350
17:00+12se22362 0.0 10311499
20:00+8sse23555 0.0 103240
22 april, thu
thu2223:00+6sse22625 0.0 103324
02:00+4sse236974 0.0 103357
05:00+3s267479 0.0 103494
08:00+6sse385990 0.0 1034263
11:00+11s5840100 0.0 10341018
14:00+13s6834100 0.0 10331521
17:00+13s4837100 0.0 10321545
20:00+10s3949100 0.0 1033329
23 april, fri
fri2323:00+7ssw3116098 0.0 1033328
02:00+6ssw2665100 0.0 1033127
05:00+5s2368100 0.0 103254
08:00+7s3760100 0.0 1032285
11:00+11s4746100 0.0 1031887
14:00+13s5942100 0.0 10302048
17:00+11s51053100 0.0 10301632
20:00+9s2265100 0.0 102939